Effective Sunday, March 17, 2024, the National Weather Service National Data Buoy Center will discontinue its Dial-A-Buoy Interactive Voice Response system. For more information, see Service Change Notice 24-06 (PDF).

Station 46022 (LLNR 500) - EEL RIVER - 17NM WSW of Eureka, CA Image indicating link to RSS feed of recent meteorological observations for station 46022


Conditions at 46022 as of
(10:40 am PST)
1840 GMT on 02/29/2024:
     

Click on the graph icon in the table below to see a time series plot of the last five days of that observation.

5-day plot - Wind Direction Wind Direction (WDIR): SW ( 230 deg true )
5-day plot - Wind Speed Wind Speed (WSPD): 23.3 kts
5-day plot - Wind Gust Wind Gust (GST): 29.1 kts
5-day plot - Atmospheric Pressure Atmospheric Pressure (PRES):29.82 in
5-day plot - Air Temperature Air Temperature (ATMP): 51.4 °F
5-day plot - Water Temperature Water Temperature (WTMP): 54.3 °F
5-day plot - Dew Point Dew Point (DEWP): 42.8 °F
5-day plot - Wind Chill Wind Chill (CHILL): 44.4 °F
5-day plot - Wind Speed at 10 Meters Wind Speed at 10 meters (WSPD10M): 25.3 kts
5-day plot - Wind Speed at 20 Meters Wind Speed at 20 meters (WSPD20M): 27.2 kts
5-day plot -  Wind Speed, Wind Gust and Atmospheric Pressure Combined plot of Wind Speed, Gust, and Air Pressure
Supplemental Measurements
Highest 1-minute Wind Speed
Time (PST)5-day plot - 1-Minute Wind Speed WSPD 5-day plot - 1-Minute Wind Direction WDIR
10:36 am 25.3 kts-
Previous observations
TIME
(PST)
5-day plot - Wind Direction
WDIR
 
5-day plot - Wind Speed
WSPD
kts
5-day plot - Wind Gust
GST
kts
5-day plot - Wave Height
WVHT
ft
5-day plot - Dominant Wave Period
DPD
sec
5-day plot - Average Wave Period
APD
sec
5-day plot - Mean Wave Direction
MWD
 
5-day plot - Atmospheric Pressure
PRES
in
5-day plot - Pressure Tendency
PTDY
in
5-day plot - Air Temperature
ATMP
°F
5-day plot - Water Temperature
WTMP
°F
5-day plot - Dew Point
DEWP
°F
5-day plot - Salinity
SAL
psu
5-day plot - Visibility
VIS
nmi
5-day plot - Tide (above MLLW)
TIDE
ft
2024-02-29 10:30 am SW 21.4 25.3----29.81- 51.1 54.3 43.9---
2024-02-29 10:20 am SW 21.4 27.2 12.8 117.6WNW29.82- 50.5 54.3 43.9---
2024-02-29 10:10 amWSW 21.4 27.2----29.83- 50.2 54.1 44.1---
2024-02-29 10:00 am SW 23.3 31.1----29.81+0.04 51.8 54.1 43.7---
2024-02-29 09:50 am SW 19.4 27.2 12.8 117.5WNW29.81- 50.7 54.1 43.2---
2024-02-29 09:40 am SW 21.4 27.2----29.80- 51.1 54.3 42.8---
2024-02-29 09:30 am SW 19.4 25.3----29.79- 51.8 54.1 43.5---
2024-02-29 09:20 am SW 19.4 25.3 13.5 117.6WNW29.79- 51.4 54.1 43.9---
2024-02-29 09:10 am SW 19.4 25.3----29.79- 51.3 54.1 43.9---
2024-02-29 09:00 am SW 19.4 25.3----29.78+0.04 51.1 54.1 44.1---
2024-02-29 08:50 amSSW 19.4 25.3 13.5 117.5WNW29.78- 50.9 54.1 45.0---
2024-02-29 08:40 am SW 19.4 25.3----29.77- 50.5 54.3 45.5---
2024-02-29 08:30 amSSW 19.4 25.3----29.78- 50.4 54.1 46.4---
2024-02-29 08:20 am SW 19.4 23.3 13.8 117.3WNW29.77- 50.2 54.1 46.2---
2024-02-29 08:10 am SW 19.4 25.3 13.8-7.3WNW29.77- 49.6 54.1 45.5---
2024-02-29 08:00 am SW 19.4 25.3----29.78+0.06 49.8 54.1 45.9---
2024-02-29 07:50 am SW 21.4 25.3 13.8 117.7WNW29.76- 49.6 54.1 45.9---
2024-02-29 07:40 am SW 19.4 25.3----29.76- 49.5 54.1 46.4---
2024-02-29 07:30 amWSW 19.4 25.3----29.77- 48.9 54.1 46.0---
2024-02-29 07:20 amWSW 17.5 25.3 14.8 107.8WNW29.75- 48.9 54.1 46.6---
2024-02-29 07:10 am W 19.4 25.3 14.8-7.8WNW29.78- 48.7 54.3 46.4---
2024-02-29 07:00 am W 17.5 23.3----29.77+0.04 48.7 54.1 46.4---
2024-02-29 06:50 am W 19.4 25.3 14.4 117.4WNW29.74- 48.7 54.1 46.0---
2024-02-29 06:40 am W 21.4 27.2----29.75- 49.1 54.1 46.8---
2024-02-29 06:30 am W 21.4 27.2----29.74- 48.9 54.3 46.6---
2024-02-29 06:20 am W 23.3 31.1 15.4 117.5WNW29.74- 48.7 54.1 47.1---
2024-02-29 06:10 am W 21.4 27.2 15.4-7.5WNW29.73- 48.6 54.3 47.5---
2024-02-29 06:00 amWSW 23.3 40.8----29.74-0.03 49.6 54.1 47.8---
2024-02-29 05:50 am S 29.1 42.7 12.5 117.0WNW29.69- 53.6 54.3 51.6---
2024-02-29 05:40 am S 29.1 36.9----29.69- 53.6 54.3 51.6---
2024-02-29 05:30 am S 29.1 36.9----29.68- 53.4 54.3 51.6---
2024-02-29 05:20 am S 27.2 36.9 13.5 117.2 NW29.70- 53.2 54.3 52.0---
2024-02-29 05:10 am S 29.1 36.9 13.5-7.2 NW29.70- 52.9 54.3 52.2---
2024-02-29 05:00 am S 27.2 35.0----29.71-0.06 53.1 54.3 52.2---
2024-02-29 04:50 am S 27.2 36.9 11.8 106.7WNW29.70- 53.2 54.3 52.0---
2024-02-29 04:40 am S 27.2 36.9 11.8-6.7WNW29.71- 53.8 54.3 51.8---
2024-02-29 04:30 am S 27.2 35.0----29.72- 53.4 54.3 51.6---
2024-02-29 04:20 am S 29.1 36.9 11.8 76.6SSW29.72- 53.4 54.3 51.8---
2024-02-29 04:10 am S 29.1 35.0----29.71- 53.4 54.3 52.2---
2024-02-29 04:00 am S 27.2 36.9----29.72-0.08 53.4 54.3 52.2---
2024-02-29 03:50 am S 29.1 36.9 11.2 106.5WNW29.71- 53.2 54.3 52.0---
2024-02-29 03:40 am S 29.1 35.0----29.73- 53.1 54.3 51.8---
2024-02-29 03:30 am S 29.1 36.9----29.73- 53.2 54.3 52.2---
2024-02-29 03:20 am S 27.2 35.0 11.2 86.6WSW29.73- 53.4 54.3 52.2---
2024-02-29 03:10 am S 27.2 35.0----29.74- 53.4 54.3 51.8---
2024-02-29 03:00 am S 27.2 35.0----29.77-0.06 53.2 54.3 52.0---
2024-02-29 02:50 am S 27.2 35.0 10.5 96.4WNW29.75- 53.2 54.3 51.8---
2024-02-29 02:40 am S 27.2 35.0----29.75- 53.2 54.3 52.0---
2024-02-29 02:30 am S 27.2 36.9----29.75- 53.1 54.3 51.8---
2024-02-29 02:20 am S 29.1 36.9 10.5 106.3 NW29.76- 53.2 54.3 51.8---
2024-02-29 02:10 amSSE 27.2 36.9 10.5-6.3 NW29.79- 53.4 54.3 51.6---
2024-02-29 02:00 am S 27.2 35.0----29.77-0.09 53.2 54.3 51.8---
2024-02-29 01:50 am S 27.2 35.0 10.5 66.1SSW29.78- 53.2 54.3 51.8---
2024-02-29 01:40 am S 27.2 33.0----29.79- 53.1 54.3 51.6---
2024-02-29 01:30 am S 27.2 35.0----29.79- 53.1 54.3 51.8---
2024-02-29 01:20 am S 29.1 35.0 10.5 106.4 NW29.82- 52.9 54.3 52.0---
2024-02-29 01:10 am S 25.3 31.1 10.5-6.4 NW29.83- 53.1 54.3 52.0---
2024-02-29 01:00 am S 27.2 35.0----29.80-0.07 53.1 54.3 51.8---
2024-02-29 12:50 am S 27.2 35.0 9.2 66.0SSW29.80- 53.1 54.3 52.0---
2024-02-29 12:40 am S 27.2 33.0----29.81- 53.1 54.3 52.2---
2024-02-29 12:30 am S 25.3 33.0----29.83- 53.1 54.3 52.0---
2024-02-29 12:20 am S 27.2 35.0 8.5 105.8WNW29.81- 53.1 54.3 52.0---
2024-02-29 12:10 am S 27.2 33.0 8.5-5.8WNW29.83- 52.9 54.3 51.8---
2024-02-29 12:00 am S 27.2 35.0----29.83-0.07 52.9 54.3 51.8---
2024-02-28 11:50 pm S 25.3 35.0 8.9 105.9 NW29.83- 52.9 54.3 51.6---
2024-02-28 11:40 pm S 25.3 35.0----29.84- 53.1 54.3 51.6---
2024-02-28 11:30 pm S 27.2 35.0----29.85- 52.9 54.3 51.4---
2024-02-28 11:20 pm S 25.3 33.0 8.2 65.8SSW29.85- 52.7 54.3 51.6---
2024-02-28 11:10 pm S 25.3 31.1 8.2-5.8SSW29.85- 52.9 54.3 52.0---
2024-02-28 11:00 pm S 25.3 31.1----29.85-0.04 52.7- 51.8---
2024-02-28 10:50 pm S 23.3 31.1 8.2 65.9SSW29.89- 52.9 54.3 52.0---
2024-02-28 10:40 pm S 23.3 31.1 8.2-5.9SSW29.88- 52.9 54.3 52.2---
2024-02-28 10:30 pm S 23.3 31.1----29.88- 52.7 54.3 52.0---
2024-02-28 10:20 pm S 25.3 31.1 7.9 65.7SSW29.89- 52.5 54.3 51.6---
2024-02-28 10:10 pm S 23.3 31.1 7.9-5.7SSW29.90- 52.5 54.3 51.6---
2024-02-28 10:00 pmSSE 25.3 33.0----29.87-0.04 52.5 54.3 51.6---
2024-02-28 09:50 pmSSE 25.3 31.1 8.2 95.9WNW29.88- 52.3 54.3 51.4---
2024-02-28 09:40 pmSSE 25.3 31.1----29.88- 52.3 54.3 51.4---
2024-02-28 09:30 pmSSE 25.3 33.0----29.89- 52.2 54.3 51.3---
2024-02-28 09:20 pmSSE 25.3 31.1 7.9 95.7 NW29.88- 52.3 54.3 51.3---
2024-02-28 09:10 pmSSE 25.3 31.1----29.88- 52.2 54.3 51.1---
2024-02-28 09:00 pmSSE 25.3 31.1----29.90-0.04 52.2 54.3 51.1---
2024-02-28 08:50 pmSSE 25.3 31.1 7.2 55.6 S29.91- 52.0 54.3 50.9---
2024-02-28 08:40 pmSSE 23.3 31.1----29.89- 52.0 54.3 51.1---
2024-02-28 08:30 pmSSE 23.3 29.1----29.89- 52.0 54.3 51.1---
2024-02-28 08:20 pm S 23.3 29.1 7.2 105.7WNW29.89- 52.2 54.3 51.1---
2024-02-28 08:10 pm S 23.3 31.1----29.89- 52.2 54.3 51.1---
2024-02-28 08:00 pm S 25.3 29.1----29.89-0.05 52.2 54.3 50.9---
2024-02-28 07:50 pm S 23.3 29.1 6.9 115.7 NW29.91- 52.0 54.3 50.7---
2024-02-28 07:40 pm S 23.3 29.1----29.90- 52.2 54.3 50.7---
2024-02-28 07:30 pm S 23.3 29.1----29.90- 52.3 54.3 50.7---
2024-02-28 07:20 pm S 23.3 27.2 6.9 115.8NNW29.91- 52.5 54.3 50.7---
2024-02-28 07:10 pm S 21.4 27.2 6.9-5.8NNW29.91- 52.5 54.3 50.4---
2024-02-28 07:00 pm S 23.3 29.1----29.91-0.05 52.5 54.3 50.2---
2024-02-28 06:50 pm S 23.3 27.2 7.5 116.0 NW29.91- 52.5 54.3 50.2---
2024-02-28 06:40 pm S 21.4 27.2----29.93- 52.7 54.3 50.4---
2024-02-28 06:30 pm S 21.4 25.3----29.93- 52.7 54.3 50.5---
2024-02-28 06:20 pm S 21.4 27.2 7.5 106.2 NW29.92- 52.5 54.3 50.2---
2024-02-28 06:10 pm S 21.4 27.2----29.92- 52.5 54.3 50.0---
2024-02-28 06:00 pm S 19.4 25.3----29.94-0.05 52.5 54.3 50.2---
2024-02-28 05:50 pm S 19.4 27.2 7.2 106.1 NW29.93- 52.5 54.3 50.2---
2024-02-28 05:40 pm S 19.4 23.3----29.93- 52.5 54.3 50.0---
2024-02-28 05:30 pm S 21.4 25.3----29.93- 52.5 54.3 50.2---
2024-02-28 05:20 pm S 19.4 25.3 7.2 116.2NNW29.93- 52.3 54.3 50.2---
2024-02-28 05:10 pm S 19.4 25.3 7.2-6.2NNW29.94- 52.2 54.3 50.4---
2024-02-28 05:00 pm S 17.5 23.3----29.94-0.07 52.3 54.3 50.7---
2024-02-28 04:50 pm S 19.4 23.3 6.9 116.4 NW29.94- 52.0 54.3 50.5---
2024-02-28 04:40 pm S 17.5 23.3----29.95- 52.2 54.3 50.7---
2024-02-28 04:30 pm S 19.4 23.3----29.96- 52.2 54.3 50.9---
2024-02-28 04:20 pm S 17.5 21.4 6.6 126.4 NW29.95- 52.3 54.3 50.9---
2024-02-28 04:10 pm S 19.4 23.3 6.6-6.4 NW29.97- 52.2 54.3 50.4---
2024-02-28 04:00 pm S 19.4 23.3----29.96-0.08 52.2 54.3 50.4---
2024-02-28 03:50 pm S 17.5 23.3 6.9 116.8 NW29.97- 52.2 54.3 50.4---
2024-02-28 03:40 pm S 19.4 23.3----29.97- 52.2 54.3 50.4---
2024-02-28 03:30 pm S 17.5 21.4----29.98- 52.3 54.3 50.4---
2024-02-28 03:20 pm S 17.5 21.4 6.6 116.8 NW29.98- 52.2 54.3 50.2---
2024-02-28 03:10 pm S 17.5 21.4----29.99- 52.3 54.3 50.4---
2024-02-28 03:00 pm S 17.5 21.4----29.99-0.08 52.2 54.3 50.0---
2024-02-28 02:50 pm S 17.5 21.4 6.6 117.0WNW29.99- 52.3 54.3 49.8---
2024-02-28 02:40 pm S 17.5 21.4 6.6-7.0WNW30.00- 52.3 54.1 49.5---
2024-02-28 02:30 pm S 15.5 19.4----30.00- 52.3 54.1 49.5---
2024-02-28 02:20 pmSSW 15.5 19.4 6.9 117.3 NW30.00- 52.3 54.1 49.5---
2024-02-28 02:10 pm S 17.5 21.4 6.9-7.3 NW30.00- 52.2 54.1 49.3---
2024-02-28 02:00 pm S 15.5 19.4----30.01-0.07 52.2 54.1 49.3---
2024-02-28 01:50 pm S 15.5 19.4 6.2 117.2 NW30.02- 52.2 54.1 49.3---
2024-02-28 01:40 pm S 15.5 19.4----30.02- 52.2 54.1 49.3---
2024-02-28 01:30 pmSSW 15.5 17.5----30.03- 52.2 54.1 49.1---
2024-02-28 01:20 pmSSW 15.5 17.5 6.2 117.7 NW30.03- 52.3 54.1 49.1---
2024-02-28 01:10 pm S 13.6 17.5----30.04- 52.2 54.1 48.6---
2024-02-28 01:00 pm S 13.6 17.5----30.04-0.04 52.2 54.1 48.6---
2024-02-28 12:50 pm S 13.6 17.5 6.9 118.0 NW30.04- 52.2 54.1 48.2---
2024-02-28 12:40 pm S 13.6 15.5----30.05- 52.0 54.1 47.8---
2024-02-28 12:30 pm S 13.6 17.5----30.06- 51.8 54.1 47.5---
2024-02-28 12:20 pm S 13.6 15.5 6.2 117.7 NW30.06- 52.0 54.1 47.7---
2024-02-28 12:10 pm S 11.7 15.5 6.2-7.7 NW30.07- 52.0 54.1 47.5---
2024-02-28 12:00 pm S 11.7 15.5----30.07-0.02 51.8 54.1 47.1---
2024-02-28 11:50 am S 11.7 15.5 6.6 128.2 NW30.07- 51.8 54.1 46.9---
2024-02-28 11:40 am S 11.7 15.5----30.08- 51.8 54.1 46.8---
2024-02-28 11:30 am S 11.7 15.5----30.08- 51.8 54.1 46.4---
2024-02-28 11:20 am S 11.7 13.6 6.2 128.3WNW30.08- 52.0 54.0 46.0---
2024-02-28 11:10 am S 9.7 13.6 6.2-8.3WNW30.09- 51.6 54.0 45.1---
2024-02-28 11:00 am S 9.7 11.7----30.08-0.02 51.4 53.8 44.4---
2024-02-28 10:50 am S 9.7 11.7 5.9 128.3 NW30.09- 51.4 53.8 44.4---

Detailed Wave Summary
for 46022 as of (10:10 am PST)
1810 GMT on 02/29/2024:

These wave data are displayed in rounded times.

     

Click on the graph icon in the table below to see a time series plot of the last five days of that observation.

5-day plot - Significant Wave Height Significant Wave Height (WVHT): 12.8 ft
5-day plot - Swell Height Swell Height (SwH): 8.5 ft
5-day plot - Swell Period Swell Period (SwP): 11.4 sec
5-day plot - Swell Direction Swell Direction (SwD):WNW
5-day plot - Wind Wave Height Wind Wave Height (WWH): 9.5 ft
5-day plot - Wind Wave Period Wind Wave Period (WWP): 7.7 sec
5-day plot - Wind Wave Direction Wind Wave Direction (WWD): SW
5-day plot - Wave Steepness Wave Steepness (STEEPNESS): AVERAGE
5-day plot - Average Wave Period Average Wave Period (APD): 7.6 sec
Previous observations
TIME
(PST)
5-day plot - Wave Height
WVHT
ft
5-day plot - Swell Height
SwH
ft
5-day plot - Swell Period
SwP
sec
5-day plot - Swell Direction
SwD
 
5-day plot - Wind Wave Height
WWH
ft
5-day plot - Wind Wave Period
WWP
sec
5-day plot - Wind Wave Direction
WWD
 
5-day plot - Wave Steepness
STEEPNESS
 
5-day plot - Average Wave Period
APD
sec
2024-02-29 09:40 am 12.8 10.2 11.4WNW 7.5 7.7 WSW AVERAGE 7.5
2024-02-29 09:10 am 13.5 9.5 10.8WNW 9.5 7.7 SW AVERAGE 7.6
2024-02-29 08:40 am 13.5 8.9 10.8WNW 10.2 7.1 SW AVERAGE 7.5
2024-02-29 08:10 am 13.8 7.2 10.8WNW 11.8 7.7 SW AVERAGE 7.3
2024-02-29 07:40 am 13.8 7.9 10.8WNW 11.5 7.7 SSW AVERAGE 7.7
2024-02-29 07:10 am 14.8 10.8 10.0WNW 9.8 6.7 SSW STEEP 7.8
2024-02-29 06:40 am 14.4 7.2 10.8WNW 12.5 7.1 SSW AVERAGE 7.4
2024-02-29 06:10 am 15.4 7.5 10.8WNW 13.5 7.7 SW AVERAGE 7.5
2024-02-29 05:40 am 12.5 5.6 10.8WNW 11.5 7.1 SSW AVERAGE 7.0
2024-02-29 05:10 am 13.5 0.0-- 13.5 10.8 NW AVERAGE 7.2
2024-02-29 04:40 am 11.8 0.0-- 11.8 10.0 WNW AVERAGE 6.7
2024-02-29 04:10 am 11.8 0.0-- 11.8 6.7 SSWVERY_STEEP 6.6
2024-02-29 03:40 am 11.2 0.0-- 11.2 10.0 WNW AVERAGE 6.5
2024-02-29 03:10 am 11.2 0.0-- 11.2 7.7 WSWVERY_STEEP 6.6
2024-02-29 02:40 am 10.5 0.0-- 10.5 9.1 WNW STEEP 6.4
2024-02-29 02:10 am 10.5 4.9 10.0 NW 9.2 6.2 SSW AVERAGE 6.3
2024-02-29 01:40 am 10.5 4.6 10.0WNW 9.5 6.2 SSWVERY_STEEP 6.1
2024-02-29 01:10 am 10.5 5.6 10.0 NW 8.9 5.9 SSW AVERAGE 6.4
2024-02-29 12:40 am 9.2 4.9 10.0WNW 7.5 5.6 SSWVERY_STEEP 6.0
2024-02-29 12:10 am 8.5 4.9 10.0WNW 6.9 5.9 SSW AVERAGE 5.8
2024-02-28 11:40 pm 8.9 5.2 10.0 NW 7.2 5.9 SSW AVERAGE 5.9
2024-02-28 11:10 pm 8.2 4.6 10.8WNW 6.9 5.9 SSWVERY_STEEP 5.8
2024-02-28 10:40 pm 8.2 4.6 10.8 NW 6.6 5.9 SSWVERY_STEEP 5.9
2024-02-28 10:10 pm 7.9 4.3 9.1 NW 6.6 5.6 SSWVERY_STEEP 5.7
2024-02-28 09:40 pm 8.2 4.9 9.1WNW 6.6 5.3 SSW AVERAGE 5.9
2024-02-28 09:10 pm 7.9 4.3 9.1 NW 6.6 5.6 SSW AVERAGE 5.7
2024-02-28 08:40 pm 7.2 3.9 10.8 NW 5.9 5.3 SVERY_STEEP 5.6
2024-02-28 08:10 pm 7.2 4.9 10.0WNW 5.6 5.0 SSW AVERAGE 5.7
2024-02-28 07:40 pm 6.9 4.6 10.8 NW 4.9 4.8 SSW AVERAGE 5.7
2024-02-28 07:10 pm 6.9 4.6 10.8NNW 5.2 4.8 SW AVERAGE 5.8
2024-02-28 06:40 pm 7.5 5.2 10.8 NW 5.6 4.8 SSW AVERAGE 6.0
2024-02-28 06:10 pm 7.5 5.2 10.0 NW 4.9 6.7 WNW AVERAGE 6.2
2024-02-28 05:40 pm 7.2 5.2 10.0 NW 4.9 7.7 NW AVERAGE 6.1
2024-02-28 05:10 pm 7.2 5.2 10.8NNW 4.9 7.7 NW SWELL 6.2
2024-02-28 04:40 pm 6.9 4.9 10.8 NW 4.9 8.3 NW SWELL 6.4
2024-02-28 04:10 pm 6.6 4.9 12.1 NW 4.6 7.7 WNW SWELL 6.4
2024-02-28 03:40 pm 6.9 5.2 10.8 NW 4.3 7.7 NW SWELL 6.8
2024-02-28 03:10 pm 6.6 5.6 10.8 NW 3.6 6.7 NW SWELL 6.8
2024-02-28 02:40 pm 6.6 5.6 11.4WNW 3.0 6.2 WNW SWELL 7.0
2024-02-28 02:10 pm 6.9 6.2 11.4 NW 2.6 5.6 WNW SWELL 7.3
2024-02-28 01:40 pm 6.2 5.9 11.4 NW 2.6 6.2 WNW SWELL 7.2
2024-02-28 01:10 pm 6.2 5.9 11.4 NW 2.3 5.3 W SWELL 7.7
2024-02-28 12:40 pm 6.9 6.6 10.8 NW 2.0 2.9 S SWELL 8.0
2024-02-28 12:10 pm 6.2 6.2 11.4 NW 2.0 5.3 WNW SWELL 7.7
2024-02-28 11:40 am 6.6 6.2 12.1 NW 1.6 5.0 WNW SWELL 8.2
2024-02-28 11:10 am 6.2 5.9 12.1WNW 1.3 4.3 W SWELL 8.3

Plot of wave energy versus frequency (and period)